SCP
1 1 1 1 1 1 1 1 1 1 1 1 1 1 1 1 1 1 1 1 1 1 1 1 1 1 1 1 1 1 1 1 1 1 1 1 1 1 1 1 1 0 0
1 1 1 1 1 1 1 1 1 1 1 1 1 1 1 1 1 1 1 1 1 1 1 1 1 1 1 1 1 1 1 1 1 1 1 1 1 1 1 1 0 0 0
1 1 1 1 1 1 1 1 1 1 1 1 1 1 1 1 1 1 1 1 1 1 1 1 1 1 1 1 1 1 1 1 1 1 1 1 1 1 1 0 0 0 0
1 1 1 1 1 1 1 1 1 1 1 1 1 1 1 1 1 1 1 1 1 1 1 1 1 1 1 1 1 1 1 1 1 1 1 0 0 0 0 0 0 0 0
1 1 1 1 1 1 1 1 1 1 1 1 1 1 1 1 1 1 1 1 1 1 1 0 0 1 1 1 1 1 1 1 1 1 1 0 0 0 0 0 0 0 0
1 1 1 1 1 1 1 1 1 1 1 1 1 1 1 1 1 1 1 1 1 1 1 0 0 1 1 1 1 0 0 1 1 1 0 0 0 0 0 0 0 0 0
1 1 1 1 1 1 1 1 1 1 1 1 1 1 1 2 2 2 2 1 1 1 0 0 0 0 0 0 0 0 0 0 1 0 0 0 0 0 0 0 0 0 0
1 1 1 1 1 1 1 1 1 1 1 1 1 1 2 2 2 2 2 1 1 1 0 0 0 0 0 0 0 0 0 1 0 0 0 0 0 0 0 0 0 0 0
1 1 1 1 1 1 1 1 1 1 1 1 1 1 2 2 2 2 1 1 1 1 1 1 0 0 0 1 1 1 1 1 1 1 0 1 1 1 1 0 0 0 0
1 1 1 1 1 1 1 1 1 1 1 1 1 1 1 1 1 1 1 1 1 1 1 1 1 1 1 1 1 1 1 1 1 1 1 1 1 1 1 1 0 0 0
1 1 1 1 1 1 1 1 1 1 1 1 1 1 1 1 1 1 1 1 1 1 1 1 1 1 1 1 1 1 1 1 1 1 1 1 1 1 1 1 0 0 0
1 1 1 0 0 1 1 1 1 1 1 1 1 1 1 1 1 1 1 0 0 1 1 1 1 1 1 1 1 1 1 1 1 1 1 1 1 1 1 1 1 1 1
0 0 0 0 0 0 0 0 0 0 1 1 0 0 1 1 1 1 0 0 0 0 0 0 0 0 0 0 0 1 1 0 0 0 1 1 1 1 1 1 1 1 1
0 0 0 0 0 0 0 0 0 0 0 1 1 1 1 1 1 0 0 0 0 0 0 0 0 0 0 0 0 0 0 0 0 0 0 1 1 1 1 1 1 1 1
1 1 0 0 0 0 0 0 0 0 0 1 1 1 0 1 0 0 0 0 0 0 0 0 0 0 0 0 0 0 0 0 0 0 0 1 1 1 2 2 1 1 1
1 1 0 0 0 0 0 0 1 0 0 1 1 1 1 1 1 0 0 0 0 0 1 1 1 1 1 1 0 0 0 0 0 0 0 1 1 1 2 2 1 1 1
1 1 0 0 0 0 1 1 1 0 0 0 0 1 1 1 1 0 0 0 1 1 1 1 1 1 1 1 1 1 0 0 0 0 0 1 1 1 2 2 1 1 1
1 1 1 0 1 1 1 1 1 0 0 0 0 0 1 1 1 1 1 1 1 1 1 1 1 1 1 1 1 1 1 0 0 0 0 1 1 1 1 1 1 1 2
1 1 1 1 1 1 1 1 0 0 0 0 0 0 0 0 1 1 1 1 1 1 1 1 1 1 1 1 1 1 1 1 0 0 0 0 1 1 1 1 1 1 1
2 2 1 1 1 1 1 0 0 0 0 0 0 0 0 1 1 1 1 1 1 1 1 1 1 1 1 1 1 1 1 1 0 0 0 1 1 1 1 1 1 1 1
2 2 2 2 1 1 1 1 0 0 0 0 0 0 1 1 1 1 1 1 1 1 1 1 1 1 1 1 1 1 1 1 0 1 1 1 1 1 1 1 1 1 1
2 2 2 2 2 1 1 1 1 1 0 0 1 1 1 1 1 1 1 1 1 1 1 1 1 1 1 1 1 1 1 0 0 0 1 1 1 1 1 1 1 1 1
2 3 3 3 2 2 1 1 1 1 1 1 1 1 1 1 1 1 1 1 1 1 1 1 1 1 1 1 1 1 1 0 0 0 0 0 1 1 1 1 1 1 1
2 3 3 3 2 2 1 1 1 1 1 1 1 1 2 2 2 1 1 1 1 1 1 1 1 1 1 1 1 1 1 1 0 0 0 0 1 1 1 1 1 1 1
2 2 2 2 2 2 2 2 2 2 1 1 1 1 1 2 2 2 1 1 1 1 1 1 1 1 1 1 1 1 1 1 1 0 0 0 1 0 0 0 1 1 1
2 2 2 2 2 3 3 2 2 2 1 1 1 1 1 1 1 1 1 1 1 1 1 1 1 1 1 1 1 1 1 1 1 1 0 0 1 0 0 0 0 1 1
Wind_Speed
1 1 3 6 8 9 9 9 9 10 11 11 11 11 11 12 12 12 11 11 10 10 10 10 11 10 10 9 9 9 10 11 11 11 11 11 11 11 11 10 10 7 10
3 2 5 7 8 9 9 9 9 10 11 11 11 10 11 11 11 11 10 10 10 10 10 10 10 9 9 9 8 9 9 10 10 11 11 10 10 10 10 10 9 6 10
4 3 4 7 8 8 8 9 9 10 10 10 10 10 10 10 10 10 10 10 10 10 9 9 9 9 8 8 8 8 9 9 9 9 9 6 7 9 9 9 9 9 9
5 3 4 7 8 8 8 8 8 9 9 9 9 9 9 9 10 10 9 9 9 9 9 9 8 8 8 8 8 7 8 8 8 8 5 4 5 8 9 9 9 9 9
4 3 4 8 8 7 7 7 7 7 8 8 8 8 8 9 9 9 8 8 8 8 8 8 7 7 7 6 6 6 7 6 6 5 4 3 3 7 8 8 8 8 8
3 2 3 7 7 7 7 7 7 7 7 7 7 7 7 8 8 8 7 7 8 7 7 7 6 6 6 6 6 6 6 5 4 3 3 3 3 6 7 8 8 8 7
3 2 3 6 6 6 6 6 6 6 6 6 7 6 7 7 7 7 6 6 6 6 6 5 5 5 6 6 5 5 5 5 3 2 3 3 3 6 7 7 8 8 8
3 2 2 5 6 6 6 6 5 5 5 6 6 6 6 6 6 6 6 6 5 5 5 5 4 4 4 4 5 5 4 4 3 3 2 2 4 6 7 7 8 8 8
3 2 1 2 3 5 5 5 5 5 5 6 6 5 5 5 5 4 5 5 5 4 4 4 4 4 3 3 4 4 4 4 3 2 3 2 5 6 7 8 8 8 8
2 2 1 1 1 2 2 4 5 4 4 5 4 4 4 4 3 3 3 3 4 3 3 3 3 3 3 2 3 3 3 2 2 2 2 3 6 7 8 8 8 8 8
2 1 1 1 1 1 2 2 3 3 3 2 2 2 2 1 1 1 1 2 3 3 2 2 2 2 2 2 2 2 2 1 2 2 2 5 7 8 8 8 8 8 8
2 1 1 1 1 1 1 1 1 1 2 1 1 1 1 1 1 0 0 1 2 1 1 1 1 1 0 0 1 1 1 2 2 2 3 7 7 8 9 9 8 8 8
3 2 2 1 1 1 1 1 1 1 1 1 1 1 1 1 1 1 1 1 1 0 1 1 1 0 0 1 1 1 2 2 2 2 3 6 7 8 8 9 9 9 9
2 2 2 2 2 1 1 1 1 1 1 0 0 1 1 0 1 0 0 1 1 0 1 0 0 1 0 1 2 2 3 2 2 2 3 6 7 8 8 9 9 9 9
3 3 3 3 2 2 1 0 1 1 0 0 0 0 1 1 0 0 0 0 0 0 0 0 0 1 1 1 1 2 2 3 3 3 2 5 6 7 8 9 10 10 10
3 2 2 3 2 2 1 1 1 1 0 0 0 0 1 1 1 1 0 0 0 0 1 1 1 1 1 1 2 2 2 2 2 3 2 3 4 5 7 9 9 10 10
3 2 2 3 2 2 2 2 1 1 1 1 1 1 1 1 1 1 0 1 1 1 1 0 1 0 1 1 1 2 2 2 2 3 3 2 2 4 5 6 7 8 9
3 2 2 3 3 2 2 1 1 1 1 1 0 0 0 1 1 1 0 1 1 0 0 0 0 0 1 1 1 1 1 1 2 2 2 2 2 2 3 5 6 7 8
4 3 2 2 2 2 2 1 1 1 1 0 0 0 0 1 1 1 1 1 1 0 0 1 0 0 0 1 1 1 1 1 2 2 2 2 2 2 2 3 5 5 7
3 3 3 2 2 2 2 2 1 1 1 1 0 0 0 0 1 1 0 0 0 0 1 1 0 0 0 1 1 1 1 1 1 1 2 2 2 3 3 3 3 3 5
3 3 3 3 2 2 2 2 1 0 0 0 0 0 0 0 1 1 0 0 0 0 0 0 0 0 1 0 1 1 2 1 1 0 1 1 2 3 3 3 2 2 3
4 3 3 3 3 2 2 2 2 1 0 0 0 1 1 0 0 1 1 1 0 0 0 1 1 0 0 1 1 1 2 3 2 1 1 1 1 1 2 3 3 3 3
4 4 4 4 3 2 2 2 2 2 1 1 1 1 1 1 1 1 1 1 1 1 0 0 0 1 0 0 1 1 1 1 2 2 1 1 1 1 2 2 3 4 4
5 4 3 3 3 3 3 3 3 2 1 1 0 0 1 1 1 1 1 1 1 1 0 0 0 0 1 0 0 0 1 1 1 1 2 2 2 1 2 2 2 3 4
4 4 3 3 3 3 3 3 3 2 1 0 1 1 1 1 2 1 1 1 1 1 0 0 1 1 1 1 1 1 1 0 1 1 2 3 2 1 2 2 2 2 2
3 3 3 4 3 3 3 3 4 3 2 2 1 0 1 1 1 2 1 1 1 0 0 0 0 1 0 0 0 1 1 1 1 1 2 2 2 2 1 1 1 2 2
Wind_Direction
193 194 138 122 119 115 113 113 115 117 121 123 122 123 125 126 128 133 135 137 135 131 130 128 126 126 125 125 128 131 134 134 137 137 138 140 140 138 140 141 138 139 144
152 150 138 124 123 117 115 114 116 119 121 123 124 124 128 131 133 137 136 135 133 132 131 132 130 128 127 128 127 130 134 135 138 142 142 145 142 143 143 143 144 146 149
132 132 135 128 123 119 118 118 119 122 123 125 126 127 132 135 137 138 136 135 134 133 132 133 131 131 131 130 130 131 133 136 140 140 139 138 143 148 148 149 151 150 150
131 122 133 132 128 125 122 120 119 125 126 127 128 129 134 136 138 136 135 137 136 134 135 136 137 137 135 135 135 133 136 138 141 138 131 138 148 153 157 158 157 156 152
121 118 137 136 134 129 126 121 119 124 128 130 131 131 134 136 136 136 138 140 139 137 138 141 145 144 142 140 138 136 137 140 139 128 128 143 149 163 167 166 162 157 152
123 123 141 139 137 134 131 128 126 127 133 136 136 136 135 136 135 138 142 144 144 142 143 145 148 151 150 147 148 145 145 146 135 123 137 147 157 176 173 169 169 164 162
132 125 140 144 142 139 136 131 128 127 132 138 138 139 140 140 139 140 143 145 146 147 147 150 154 157 157 160 163 159 158 155 142 144 158 166 183 186 181 175 176 175 172
137 130 136 149 146 144 141 136 132 128 130 133 132 130 126 127 135 138 143 150 154 156 158 164 166 165 164 168 173 174 169 171 161 162 164 182 195 196 191 186 183 181 178
118 114 104 120 141 147 144 142 138 135 134 139 138 135 131 127 129 140 149 156 162 163 162 167 175 174 174 177 187 191 186 181 166 172 188 197 201 202 198 189 187 185 183
110 113 105 95 99 116 133 149 145 142 134 137 138 138 135 130 129 135 148 161 168 173 174 175 180 184 179 187 199 204 202 179 173 190 204 211 211 207 205 197 192 189 188
140 129 112 100 96 104 110 142 146 145 129 116 113 118 102 64 65 102 158 178 184 190 187 183 193 199 203 204 215 227 228 182 187 207 209 216 214 212 212 206 197 191 191
184 179 142 130 112 104 130 96 82 92 76 71 57 49 61 61 43 57 146 191 206 220 199 182 202 211 234 166 234 259 234 206 206 217 222 220 216 216 217 209 199 194 195
183 182 169 160 135 134 110 97 89 82 83 79 74 67 62 61 47 26 26 3 34 12 20 55 13 347 220 201 218 223 221 218 218 227 230 225 222 220 217 208 200 198 197
168 194 182 170 162 170 135 105 114 115 121 119 85 77 84 81 70 49 32 13 30 29 31 22 346 314 275 241 232 235 232 220 217 221 233 231 227 223 218 210 203 203 201
178 191 186 178 183 181 155 184 142 153 151 137 84 86 142 171 174 180 6 37 3 199 194 226 249 278 274 268 255 240 240 230 221 218 231 232 228 223 221 211 206 207 206
190 197 183 179 184 171 174 180 170 167 160 100 220 244 175 183 180 179 258 292 265 229 220 224 247 250 257 255 262 257 248 235 221 216 220 237 233 226 219 213 209 210 209
185 185 182 180 167 168 181 190 177 181 165 179 237 236 178 184 189 181 199 264 269 244 215 235 296 277 257 259 260 262 251 239 227 221 219 219 228 223 215 212 207 210 214
169 174 187 182 159 172 179 182 170 177 169 192 237 132 165 186 188 176 214 267 276 260 214 224 259 327 318 323 296 288 270 249 242 233 222 213 209 213 216 212 211 211 216
172 166 165 153 156 164 155 138 121 98 106 151 134 120 161 194 189 164 213 278 321 353 313 281 58 151 282 316 292 289 284 259 250 235 216 211 208 205 208 212 213 216 223
164 159 156 149 158 150 125 98 77 65 48 47 78 132 151 161 155 152 160 316 351 47 346 350 13 53 239 290 311 332 319 295 275 243 234 215 211 214 212 217 219 223 229
155 158 163 160 169 146 134 135 131 150 342 349 345 49 133 192 165 148 175 37 56 131 266 309 85 49 352 28 53 348 344 333 312 286 244 218 223 221 209 214 222 221 230
172 174 173 177 175 168 160 152 148 145 163 217 343 28 16 0 217 172 161 177 170 135 27 39 95 88 332 72 131 90 355 348 348 343 326 254 265 238 224 221 218 221 225
181 189 188 187 180 177 160 123 99 67 37 27 8 354 350 13 39 86 143 148 135 146 162 305 138 160 209 345 99 135 145 252 316 329 330 326 306 266 252 235 228 229 228
199 186 181 183 175 172 156 149 153 159 184 226 242 301 355 23 40 68 82 95 104 113 117 298 82 166 158 209 297 99 167 173 200 315 325 328 311 292 278 261 247 236 231
192 174 175 168 174 166 158 165 158 168 192 169 92 54 18 15 32 51 71 82 90 107 116 44 60 88 164 188 194 176 161 165 196 201 281 310 320 302 282 266 254 246 244
184 172 165 164 177 169 163 167 169 173 163 137 127 96 351 360 11 19 64 69 78 110 143 131 97 102 131 181 191 175 166 182 194 197 236 275 291 297 294 285 261 256 252